Chamberlain, SD

11:11 PM CST on December 10, 2016 (GMT -0600)
Chamberlain

Weather History for K9V9 - February, 2013

Change the Weather History Date:

Monday, February 11, 2013

  Actual Average Record
Temperature  
Mean Temperature 20 °F -  
Max Temperature 26 °F 33 °F 64 °F (2005)
Min Temperature 14 °F 13 °F -6 °F (2012)
Degree Days  
Heating Degree Days 45    
Moisture  
Dew Point 16 °F    
Average Humidity 76    
Maximum Humidity 81    
Minimum Humidity 69    
Precipitation  
Precipitation 0.00 in - - ()
Sea Level Pressure  
Sea Level Pressure 30.09 in    
Wind  
Wind Speed 15 mph (WNW)    
Max Wind Speed 25 mph    
Max Gust Speed 32 mph    
Averages and records for this station are not official NWS values.
T = Trace of Precipitation, MM = Missing Value Source: NWS Daily Summary

Daily Weather History Graph

Daily Weather History Graph

Search for Another Location

Airport or City:

Trip Planner

Search our weather history database for the weather conditions in past years. The results will help you decide how hot, cold, wet, or windy it might be!

Date:

Astronomy

Feb. 11, 2013 Rise Set
Actual Time 7:41 AM CST 6:02 PM CST
Civil Twilight 7:11 AM CST 6:32 PM CST
Nautical Twilight 6:37 AM CST 7:05 PM CST
Astronomical Twilight 6:04 AM CST 7:39 PM CST
Moon 8:01 AM CST 8:06 PM CST
Length of Visible Light 11h 20m
Length of Day
10h 21m
Waxing Crescent, 3% of the Moon is Illuminated
Feb 11
Waxing Crescent
Feb 17
First Quarter
Feb 25
Full
Mar 4
Last Quarter
Mar 11
New

Hourly Weather History & Observations

Time (CST) Temp. Windchill Dew Point Humidity Pressure Visibility Wind Dir Wind Speed Gust Speed Precip Events Conditions
12:52 AM 25.0 °F 11.3 °F 19.0 °F 78% 29.95 in - NNW 18.4 mph 29.9 mph N/A   Unknown
1:52 AM 24.1 °F 8.0 °F 18.0 °F 77% 29.97 in - NW 25.3 mph 32.2 mph N/A   Unknown
2:52 AM 23.0 °F 9.6 °F 17.1 °F 78% 30.01 in - NW 16.1 mph 29.9 mph N/A   Unknown
3:52 AM 23.0 °F 9.2 °F 17.1 °F 78% 30.03 in - WNW 17.3 mph 25.3 mph N/A   Unknown
4:52 AM 23.0 °F 10.6 °F 17.1 °F 78% 30.05 in - WNW 13.8 mph - N/A   Unknown
5:52 AM 23.0 °F 9.6 °F 16.0 °F 74% 30.06 in - WNW 16.1 mph - N/A   Unknown
6:52 AM 23.0 °F 9.6 °F 17.1 °F 78% 30.08 in - NW 16.1 mph - N/A   Unknown
7:52 AM 23.0 °F 10.6 °F 17.1 °F 78% 30.10 in - WNW 13.8 mph - N/A   Unknown
8:52 AM 23.0 °F 9.2 °F 17.1 °F 78% 30.12 in - WNW 17.3 mph - N/A   Unknown
9:52 AM 24.1 °F 10.1 °F 17.1 °F 75% 30.13 in - WNW 18.4 mph - N/A   Unknown
10:52 AM 24.1 °F 11.0 °F 17.1 °F 75% 30.15 in - WNW 16.1 mph - N/A   Unknown
11:52 AM 25.0 °F 13.1 °F 17.1 °F 72% 30.16 in - WNW 13.8 mph - N/A   Unknown
12:52 PM 25.0 °F 13.1 °F 18.0 °F 75% 30.15 in - WNW 13.8 mph - N/A   Unknown
1:52 PM 25.0 °F 13.1 °F 17.1 °F 72% 30.13 in - WNW 13.8 mph - N/A   Unknown
2:52 PM 26.1 °F 15.0 °F 17.1 °F 69% 30.14 in - NW 12.7 mph - N/A   Unknown
3:52 PM 26.1 °F 15.6 °F 17.1 °F 69% 30.13 in - WNW 11.5 mph - N/A   Unknown
4:52 PM 25.0 °F 17.1 °F 17.1 °F 72% 30.13 in - WNW 6.9 mph - N/A   Unknown
5:52 PM 21.0 °F 13.4 °F 15.1 °F 78% 30.13 in - WSW 5.8 mph - N/A   Unknown
6:52 PM 18.0 °F 7.7 °F 12.0 °F 78% 30.12 in - SSW 8.1 mph - N/A   Unknown
7:52 PM 17.1 °F - 12.0 °F 81% 30.12 in - Calm Calm - N/A   Unknown
8:52 PM 17.1 °F 7.6 °F 12.0 °F 81% 30.09 in - South 6.9 mph - N/A   Unknown
9:52 PM 17.1 °F 7.6 °F 12.0 °F 81% 30.09 in - SSW 6.9 mph - N/A   Unknown
10:52 PM 14.0 °F 8.2 °F 9.0 °F 80% 30.09 in - SSW 3.5 mph - N/A   Unknown
11:52 PM 14.0 °F 6.5 °F 9.0 °F 80% 30.08 in - SSW 4.6 mph - N/A   Unknown